Weather History for Billings, MT

Change the Weather History Date:

Friday, October 5, 2012

  Actual Average Record
Temperature  
Mean Temperature 34 °F 52 °F  
Max Temperature 40 °F 64 °F 85 °F (1958)
Min Temperature 27 °F 41 °F 24 °F (2000)
Degree Days  
Heating Degree Days 31 13  
Month to date heating degree days 83 62  
Since 1 July heating degree days 148 291  
Cooling Degree Days 0 0  
Month to date cooling degree days 3 0  
Year to date cooling degree days 958 633  
Moisture  
Dew Point 30 °F    
Average Humidity 85    
Maximum Humidity 100    
Minimum Humidity 57    
Precipitation  
Precipitation 0.06 in 0.05 in 1.10 in (1946)
Month to date precipitation 0.41 0.24  
Year to date precipitation 5.49 11.59  
Snow  
Snow 0.90 in 0.10 in 4.60 in (2009)
Month to date snowfall 3.3 0.6  
Since 1 July snowfall 3.3 1.7  
Since 1 September snowfall 3.3 1.7  
Snow Depth 0.00 in    
Sea Level Pressure  
Sea Level Pressure 30.42 in    
Wind  
Wind Speed 6 mph (NNE)    
Max Wind Speed 21 mph    
Max Gust Speed 26 mph    
Visibility 8 miles    
Events Fog , Snow    
T = Trace of Precipitation, MM = Missing Value Source: NWS Daily Summary

Daily Weather History Graph

Daily Weather History Graph

Search for Another Location

Airport:

Trip Planner

Search our weather history database for the weather conditions in past years. The results will help you decide how hot, cold, wet, or windy it might be!

Date:

Astronomy

Oct. 05, 2012 Rise Set
Actual Time 7:18 AM MDT 6:45 PM MDT
Civil Twilight 6:48 AM MDT 7:15 PM MDT
Nautical Twilight 6:14 AM MDT 7:49 PM MDT
Astronomical Twilight 5:39 AM MDT 8:24 PM MDT
Moon 9:57 PM MDT (10/5) 12:43 PM MDT (10/5)
Length of Visible Light 12h 26m
Length of Day
11h 27m
Waning Gibbous, 73% of the Moon is Illuminated
Oct 5
Waning Gibbous
Oct 8
Last Quarter
Oct 15
New
Oct 21
First Quarter
Oct 29
Full

Hourly Weather History & Observations

Time (MDT) Temp. Windchill Dew Point Humidity Pressure Visibility Wind Dir Wind Speed Gust Speed Precip Events Conditions
12:53 AM 36.0 °F 29.0 °F 33.1 °F 89% 30.40 in 10.0 mi NNE 9.2 mph - N/A   Overcast
1:53 AM 35.6 °F 29.2 °F 33.8 °F 93% 30.34 in 9.0 mi NNE 8.1 mph - N/A Snow Light Snow
2:53 AM 35.1 °F 28.6 °F 33.1 °F 92% 30.40 in 9.0 mi NNE 8.1 mph - 0.00 in Snow Light Snow
3:53 AM 35.1 °F 30.1 °F 33.1 °F 92% 30.39 in 9.0 mi NNE 5.8 mph - 0.00 in Snow Light Snow
4:53 AM 35.1 °F 30.1 °F 33.1 °F 92% 30.39 in 10.0 mi NNE 5.8 mph - 0.00 in   Overcast
5:53 AM 35.1 °F 30.1 °F 32.0 °F 89% 30.40 in 10.0 mi NNE 5.8 mph - N/A   Overcast
6:53 AM 34.0 °F 27.2 °F 32.0 °F 92% 30.41 in 10.0 mi North 8.1 mph - N/A   Overcast
7:24 AM 33.8 °F 27.7 °F 30.2 °F 87% 30.34 in 10.0 mi NNE 6.9 mph - N/A   Overcast
7:53 AM 33.1 °F 27.7 °F 30.9 °F 92% 30.43 in 10.0 mi NNW 5.8 mph - N/A   Mostly Cloudy
8:46 AM 33.8 °F 28.6 °F 30.2 °F 87% 30.36 in 10.0 mi NNW 5.8 mph - N/A   Overcast
8:53 AM 34.0 °F 29.8 °F 30.9 °F 89% 30.44 in 10.0 mi North 4.6 mph - N/A   Overcast
9:53 AM 35.6 °F 29.9 °F 30.2 °F 81% 30.38 in 10.0 mi NNE 6.9 mph - N/A   Overcast
10:29 AM 35.6 °F 32.8 °F 30.2 °F 81% 30.38 in 10.0 mi ENE 3.5 mph - N/A   Overcast
10:53 AM 37.0 °F 32.4 °F 30.9 °F 79% 30.45 in 10.0 mi East 5.8 mph - N/A   Overcast
11:03 AM 37.4 °F 32.1 °F 30.2 °F 75% 30.38 in 10.0 mi ENE 6.9 mph - N/A   Overcast
11:53 AM 39.0 °F 34.0 °F 28.9 °F 67% 30.45 in 10.0 mi NE 6.9 mph - N/A   Overcast
12:53 PM 37.9 °F 30.0 °F 28.9 °F 70% 30.45 in 10.0 mi North 12.7 mph - 0.00 in Snow Light Snow
12:58 PM 37.4 °F 30.3 °F 26.6 °F 65% 30.38 in 10.0 mi NNE 10.4 mph - 0.00 in Snow Light Snow
1:15 PM 35.6 °F 30.7 °F 26.6 °F 70% 30.38 in 0.8 mi Variable 5.8 mph - 0.00 in Snow Light Snow
1:20 PM 35.6 °F 32.8 °F 26.6 °F 70% 30.38 in 1.0 mi SSE 3.5 mph - 0.00 in Snow Light Snow
1:27 PM 35.6 °F 31.7 °F 28.4 °F 75% 30.37 in 9.0 mi South 4.6 mph - 0.00 in Snow Light Snow
1:38 PM 37.4 °F - 30.2 °F 75% 30.37 in 10.0 mi Calm Calm - 0.00 in   Overcast
1:53 PM 37.9 °F - 30.0 °F 73% 30.43 in 10.0 mi Calm Calm - 0.00 in   Overcast
2:18 PM 37.4 °F 29.8 °F 30.2 °F 75% 30.37 in 2.5 mi North 11.5 mph - 0.00 in Snow Light Snow
2:24 PM 35.6 °F 31.7 °F 30.2 °F 81% 30.37 in 8.0 mi North 4.6 mph - 0.00 in Snow Light Snow
2:53 PM 36.0 °F 32.1 °F 32.0 °F 86% 30.44 in 9.0 mi East 4.6 mph - 0.00 in   Overcast
3:53 PM 39.0 °F 34.8 °F 30.9 °F 73% 30.44 in 10.0 mi North 5.8 mph - N/A   Overcast
4:53 PM 37.0 °F 31.6 °F 30.9 °F 79% 30.45 in 10.0 mi ENE 6.9 mph - N/A   Overcast
5:49 PM 35.6 °F 24.8 °F 30.2 °F 81% 30.40 in 10.0 mi NNE 19.6 mph 26.5 mph N/A   Overcast
5:53 PM 33.1 °F 22.6 °F 30.0 °F 89% 30.49 in 4.0 mi NNE 16.1 mph 26.5 mph 0.00 in Snow Light Snow
5:58 PM 33.8 °F 23.2 °F 30.2 °F 87% 30.40 in 2.0 mi NNE 17.3 mph 26.5 mph 0.00 in   Small Hail
6:00 PM 33.8 °F 24.8 °F 30.2 °F 87% 30.40 in 1.0 mi NNE 12.7 mph - N/A   Small Hail
6:11 PM 32.0 °F 22.1 °F 30.2 °F 93% 30.40 in 0.8 mi NNE 13.8 mph - 0.02 in Snow Light Snow
6:17 PM 30.2 °F 19.3 °F 30.2 °F 100% 30.40 in 0.2 mi NNE 15.0 mph - 0.03 in Fog , Snow Heavy Snow
6:27 PM 30.2 °F 19.8 °F 30.2 °F 100% 30.40 in 0.2 mi NE 13.8 mph - 0.04 in Fog , Snow Snow
6:44 PM 30.2 °F 21.9 °F 30.2 °F 100% 30.41 in 0.5 mi NNE 9.2 mph - 0.05 in Fog , Snow Snow
6:53 PM 30.9 °F 23.5 °F 30.9 °F 100% 30.50 in 0.8 mi NE 8.1 mph - 0.06 in Snow Light Snow
7:02 PM 30.2 °F 23.4 °F 30.2 °F 100% 30.40 in 3.0 mi NE 6.9 mph - 0.00 in Snow Light Snow
7:53 PM 30.9 °F - 28.9 °F 92% 30.51 in 10.0 mi Calm Calm - 0.00 in   Scattered Clouds
8:53 PM 30.9 °F 27.5 °F 28.9 °F 92% 30.52 in 10.0 mi NNW 3.5 mph - N/A   Mostly Cloudy
9:13 PM 28.4 °F 23.3 °F 28.4 °F 100% 30.42 in 10.0 mi NW 4.6 mph - N/A   Scattered Clouds
9:53 PM 30.0 °F 22.4 °F 28.0 °F 92% 30.52 in 10.0 mi NW 8.1 mph - N/A   Partly Cloudy
10:53 PM 28.0 °F 20.8 °F 27.0 °F 96% 30.52 in 10.0 mi WNW 6.9 mph - N/A   Mostly Cloudy
11:53 PM 28.0 °F 20.8 °F 26.1 °F 92% 30.52 in 10.0 mi West 6.9 mph - N/A   Mostly Cloudy